BKP130 VTSM-VTBS

Flight info

Callsign BKP130
Flight time 0h 43m
Altitude 36000
Route OLBAG1A OLBAG Y17 DONSI M769 LEBIM LEBIM1C
Aircraft A319/M-SDE3FGHIRWY/LB1

Departure

Time 2026-04-26 04:49
Airport Samui International Airport (VTSM)

Arrival

Time 2026-04-26 05:32
Airport Suvarnabhumi Airport (VTBS)
Time Latitude Longitude Altitude Speed Heading
2026-04-26 04:13 9.55122 100.06338 53 ft 0 kts 84°
2026-04-26 04:40 9.55119 100.06318 49 ft 4 kts 60°
2026-04-26 04:40 9.55101 100.06303 50 ft 4 kts
2026-04-26 04:41 9.55089 100.06302 53 ft 0 kts 354°
2026-04-26 04:44 9.55096 100.06302 51 ft 2 kts 354°
2026-04-26 04:44 9.55120 100.06299 50 ft 5 kts 354°
2026-04-26 04:44 9.55159 100.06296 53 ft 6 kts 354°
2026-04-26 04:45 9.55208 100.06291 53 ft 8 kts 354°
2026-04-26 04:45 9.55266 100.06285 53 ft 9 kts 354°
2026-04-26 04:45 9.55298 100.06248 50 ft 8 kts 270°
2026-04-26 04:45 9.55316 100.06196 51 ft 9 kts 331°
2026-04-26 04:46 9.55378 100.06188 51 ft 10 kts 354°
2026-04-26 04:46 9.55448 100.06181 53 ft 11 kts 354°
2026-04-26 04:46 9.55525 100.06174 49 ft 11 kts 355°
2026-04-26 04:46 9.55599 100.06171 53 ft 9 kts 11°
2026-04-26 04:47 9.55655 100.06185 53 ft 8 kts
2026-04-26 04:47 9.55704 100.06176 51 ft 4 kts 316°
2026-04-26 04:47 9.55696 100.06156 53 ft 3 kts 204°
2026-04-26 04:47 9.55674 100.06160 53 ft 0 kts 172°
2026-04-26 04:48 9.55214 100.06204 50 ft 94 kts 174°
2026-04-26 04:48 9.54369 100.06286 96 ft 143 kts 173°
2026-04-26 04:48 9.53349 100.06375 633 ft 150 kts 170°
2026-04-26 04:49 9.52355 100.06703 1235 ft 152 kts 155°
2026-04-26 04:49 9.51371 100.07126 1773 ft 158 kts 156°
2026-04-26 04:49 9.50303 100.07577 2016 ft 178 kts 157°
2026-04-26 04:49 9.49085 100.08083 2257 ft 203 kts 157°
2026-04-26 04:50 9.47702 100.08654 2689 ft 221 kts 155°
2026-04-26 04:50 9.46499 100.09595 3501 ft 221 kts 122°
2026-04-26 04:50 9.46166 100.11090 4373 ft 223 kts 87°
2026-04-26 04:50 9.46302 100.12647 5275 ft 221 kts 90°
2026-04-26 04:51 9.46320 100.14205 6098 ft 222 kts 92°
2026-04-26 04:51 9.46304 100.15772 6867 ft 223 kts 89°
2026-04-26 04:51 9.46772 100.17282 7489 ft 236 kts 55°
2026-04-26 04:51 9.48084 100.18264 8169 ft 246 kts 22°
2026-04-26 04:52 9.49785 100.18550 8938 ft 249 kts
2026-04-26 04:52 9.51501 100.18791 9744 ft 249 kts 11°
2026-04-26 04:52 9.53215 100.19074 10450 ft 251 kts 12°
2026-04-26 04:52 9.54942 100.19375 11114 ft 253 kts 11°
2026-04-26 04:53 9.56756 100.19536 11488 ft 273 kts
2026-04-26 04:53 9.58739 100.19528 11713 ft 297 kts
2026-04-26 04:53 9.60886 100.19448 11876 ft 320 kts 359°
2026-04-26 04:53 9.63192 100.19349 12014 ft 342 kts 359°
2026-04-26 04:54 9.65582 100.19255 12385 ft 353 kts 359°
2026-04-26 04:54 9.68060 100.19171 12954 ft 358 kts 359°
2026-04-26 04:54 9.70558 100.19103 13541 ft 361 kts 360°
2026-04-26 04:54 9.73073 100.19243 14073 ft 363 kts 11°
2026-04-26 04:55 9.75476 100.20029 14576 ft 365 kts 26°
2026-04-26 04:55 9.77752 100.21187 15118 ft 367 kts 28°
2026-04-26 04:55 9.80042 100.22354 15639 ft 370 kts 27°
2026-04-26 04:55 9.82324 100.23513 16138 ft 373 kts 27°
2026-04-26 04:56 9.84654 100.24693 16658 ft 376 kts 27°
2026-04-26 04:56 9.87001 100.25879 17172 ft 379 kts 27°
2026-04-26 04:56 9.89371 100.27076 17678 ft 382 kts 28°
2026-04-26 04:56 9.91760 100.28280 18188 ft 385 kts 27°
2026-04-26 04:57 9.94166 100.29494 18621 ft 388 kts 27°
2026-04-26 04:57 9.96588 100.30720 19091 ft 390 kts 27°
2026-04-26 04:57 9.99012 100.31966 19558 ft 392 kts 28°
2026-04-26 04:57 10.01379 100.33275 20012 ft 394 kts 30°
2026-04-26 04:58 10.03763 100.34667 20494 ft 396 kts 31°
2026-04-26 04:58 10.06137 100.36092 20963 ft 398 kts 31°
2026-04-26 04:58 10.08526 100.37532 21404 ft 400 kts 31°
2026-04-26 04:58 10.10980 100.38884 21859 ft 403 kts 24°
2026-04-26 04:59 10.13647 100.39783 22287 ft 406 kts 13°
2026-04-26 04:59 10.16455 100.40141 22711 ft 409 kts
2026-04-26 04:59 10.19274 100.40190 23125 ft 412 kts
2026-04-26 04:59 10.22141 100.40246 23525 ft 414 kts
2026-04-26 05:00 10.25029 100.40310 23867 ft 415 kts
2026-04-26 05:00 10.27923 100.40384 24217 ft 417 kts
2026-04-26 05:00 10.30828 100.40461 24568 ft 418 kts
2026-04-26 05:00 10.33740 100.40537 24913 ft 420 kts
2026-04-26 05:01 10.36665 100.40612 25255 ft 421 kts
2026-04-26 05:01 10.39599 100.40685 25597 ft 422 kts
2026-04-26 05:01 10.42544 100.40755 25935 ft 424 kts
2026-04-26 05:01 10.45453 100.40824 26265 ft 425 kts
2026-04-26 05:02 10.48416 100.40894 26596 ft 426 kts
2026-04-26 05:02 10.51385 100.40964 26922 ft 428 kts
2026-04-26 05:02 10.54365 100.41034 27242 ft 429 kts
2026-04-26 05:02 10.57354 100.41106 27560 ft 431 kts
2026-04-26 05:03 10.60354 100.41180 27870 ft 432 kts
2026-04-26 05:03 10.63368 100.41255 28186 ft 434 kts
2026-04-26 05:03 10.66389 100.41331 28498 ft 435 kts
2026-04-26 05:03 10.69416 100.41409 28808 ft 437 kts
2026-04-26 05:04 10.72419 100.41484 29111 ft 438 kts
2026-04-26 05:04 10.75473 100.41557 29410 ft 440 kts
2026-04-26 05:04 10.78534 100.41626 29713 ft 441 kts
2026-04-26 05:04 10.81601 100.41695 30010 ft 442 kts
2026-04-26 05:05 10.84678 100.41765 30250 ft 443 kts
2026-04-26 05:05 10.87767 100.41840 30483 ft 445 kts
2026-04-26 05:05 10.90870 100.41919 30699 ft 446 kts
2026-04-26 05:05 10.93981 100.41997 30917 ft 448 kts
2026-04-26 05:06 10.97105 100.42073 31132 ft 450 kts
2026-04-26 05:06 11.00192 100.42147 31403 ft 450 kts
2026-04-26 05:06 11.03317 100.42222 31723 ft 449 kts
2026-04-26 05:06 11.06438 100.42296 32044 ft 448 kts
2026-04-26 05:07 11.09557 100.42370 32364 ft 448 kts
2026-04-26 05:07 11.12668 100.42445 32692 ft 447 kts
2026-04-26 05:07 11.15776 100.42521 33031 ft 447 kts
2026-04-26 05:07 11.18882 100.42599 33375 ft 446 kts
2026-04-26 05:08 11.21984 100.42675 33729 ft 446 kts
2026-04-26 05:08 11.25084 100.42750 34060 ft 445 kts
2026-04-26 05:08 11.28138 100.42823 34336 ft 445 kts
2026-04-26 05:08 11.31237 100.42897 34610 ft 446 kts
2026-04-26 05:09 11.34338 100.42973 34872 ft 446 kts
2026-04-26 05:09 11.37441 100.43051 35129 ft 447 kts
2026-04-26 05:09 11.40553 100.43131 35386 ft 447 kts
2026-04-26 05:09 11.43665 100.43209 35643 ft 448 kts
2026-04-26 05:10 11.46781 100.43284 35855 ft 449 kts
2026-04-26 05:10 11.49899 100.43358 35920 ft 447 kts
2026-04-26 05:10 11.56070 100.43506 35926 ft 446 kts
2026-04-26 05:11 11.62267 100.43661 35923 ft 446 kts
2026-04-26 05:11 11.68470 100.43817 35923 ft 446 kts
2026-04-26 05:12 11.74671 100.43968 35926 ft 446 kts
2026-04-26 05:12 11.80829 100.44123 35924 ft 446 kts
2026-04-26 05:13 11.83943 100.44203 35631 ft 452 kts
2026-04-26 05:13 11.87127 100.44285 35261 ft 462 kts
2026-04-26 05:13 11.90349 100.44366 34891 ft 463 kts
2026-04-26 05:13 11.93564 100.44444 34528 ft 461 kts
2026-04-26 05:14 11.96755 100.44522 34166 ft 457 kts
2026-04-26 05:14 11.99921 100.44602 33791 ft 453 kts
2026-04-26 05:14 12.03057 100.44682 33363 ft 449 kts
2026-04-26 05:14 12.06128 100.44759 32940 ft 446 kts
2026-04-26 05:15 12.09215 100.44834 32521 ft 442 kts
2026-04-26 05:15 12.12280 100.44908 32106 ft 439 kts
2026-04-26 05:15 12.15320 100.44982 31711 ft 435 kts
2026-04-26 05:15 12.18337 100.45058 31295 ft 432 kts
2026-04-26 05:16 12.21333 100.45137 30900 ft 429 kts
2026-04-26 05:16 12.24305 100.45213 30508 ft 426 kts
2026-04-26 05:16 12.27255 100.45286 30123 ft 423 kts
2026-04-26 05:16 12.30181 100.45359 29696 ft 420 kts
2026-04-26 05:17 12.33055 100.45432 29251 ft 417 kts
2026-04-26 05:17 12.35952 100.45505 28813 ft 415 kts
2026-04-26 05:17 12.38832 100.45578 28381 ft 413 kts
2026-04-26 05:17 12.41696 100.45651 27955 ft 411 kts
2026-04-26 05:18 12.44550 100.45723 27524 ft 409 kts
2026-04-26 05:18 12.47386 100.45794 27109 ft 407 kts
2026-04-26 05:18 12.50212 100.45865 26699 ft 405 kts
2026-04-26 05:18 12.53024 100.45936 26295 ft 403 kts
2026-04-26 05:19 12.55823 100.46008 25901 ft 402 kts
2026-04-26 05:19 12.58576 100.46078 25514 ft 400 kts
2026-04-26 05:19 12.61353 100.46150 25127 ft 399 kts
2026-04-26 05:19 12.64123 100.46221 24745 ft 397 kts
2026-04-26 05:20 12.66880 100.46289 24368 ft 396 kts
2026-04-26 05:20 12.69628 100.46358 23996 ft 394 kts
2026-04-26 05:20 12.72366 100.46426 23625 ft 393 kts
2026-04-26 05:20 12.75094 100.46493 23230 ft 392 kts
2026-04-26 05:21 12.77783 100.46561 22698 ft 391 kts
2026-04-26 05:21 12.80502 100.46690 22061 ft 392 kts
2026-04-26 05:21 12.83131 100.47411 21448 ft 393 kts 19°
2026-04-26 05:21 12.85709 100.48349 20841 ft 393 kts 19°
2026-04-26 05:22 12.88278 100.49297 20258 ft 392 kts 19°
2026-04-26 05:22 12.90841 100.50248 19678 ft 392 kts 19°
2026-04-26 05:22 12.93402 100.51195 19108 ft 390 kts 19°
2026-04-26 05:22 12.95950 100.52135 18552 ft 389 kts 19°
2026-04-26 05:23 12.98494 100.53070 17962 ft 387 kts 19°
2026-04-26 05:23 13.00988 100.53986 17343 ft 385 kts 19°
2026-04-26 05:23 13.03505 100.54910 16722 ft 383 kts 19°
2026-04-26 05:23 13.06008 100.55833 16112 ft 380 kts 19°
2026-04-26 05:24 13.08487 100.56750 15516 ft 378 kts 19°
2026-04-26 05:24 13.10950 100.57662 14927 ft 375 kts 19°
2026-04-26 05:24 13.13397 100.58563 14354 ft 373 kts 19°
2026-04-26 05:24 13.15831 100.59456 13790 ft 370 kts 19°
2026-04-26 05:25 13.18249 100.60343 13165 ft 368 kts 19°
2026-04-26 05:25 13.20646 100.61224 12528 ft 362 kts 20°
2026-04-26 05:25 13.22944 100.62072 11924 ft 350 kts 20°
2026-04-26 05:25 13.25199 100.62906 11326 ft 339 kts 20°
2026-04-26 05:26 13.27391 100.63719 10732 ft 331 kts 20°
2026-04-26 05:26 13.29531 100.64514 10158 ft 324 kts 20°
2026-04-26 05:26 13.31632 100.65291 9562 ft 318 kts 20°
2026-04-26 05:26 13.33694 100.66053 8946 ft 313 kts 20°
2026-04-26 05:27 13.35729 100.66805 8329 ft 309 kts 20°
2026-04-26 05:27 13.37746 100.67551 7629 ft 308 kts 20°
2026-04-26 05:27 13.39737 100.68287 6932 ft 308 kts 20°
2026-04-26 05:27 13.41781 100.68948 6227 ft 308 kts 16°
2026-04-26 05:28 13.43845 100.69518 5498 ft 307 kts 15°
2026-04-26 05:28 13.45923 100.70055 4720 ft 309 kts 15°
2026-04-26 05:28 13.48012 100.70584 3912 ft 309 kts 15°
2026-04-26 05:28 13.50096 100.71112 3115 ft 308 kts 14°
2026-04-26 05:29 13.52168 100.71642 2431 ft 303 kts 14°
2026-04-26 05:29 13.54138 100.72153 2229 ft 282 kts 14°
2026-04-26 05:29 13.55995 100.72641 1912 ft 269 kts 14°
2026-04-26 05:29 13.57722 100.73095 1589 ft 249 kts 14°
2026-04-26 05:30 13.59328 100.73517 1283 ft 227 kts 14°
2026-04-26 05:30 13.60792 100.73901 1023 ft 206 kts 14°
2026-04-26 05:30 13.62114 100.74248 767 ft 186 kts 14°
2026-04-26 05:30 13.63294 100.74558 532 ft 164 kts 15°
2026-04-26 05:31 13.64352 100.74838 341 ft 151 kts 15°
2026-04-26 05:31 13.65329 100.75099 137 ft 141 kts 15°
2026-04-26 05:31 13.66260 100.75347 23 ft 131 kts 16°
2026-04-26 05:31 13.67031 100.75542 13 ft 94 kts 14°
2026-04-26 05:32 13.67501 100.75666 12 ft 47 kts 14°
2026-04-26 05:32 13.67771 100.75735 11 ft 26 kts 13°
2026-04-26 05:32 13.67897 100.75742 11 ft 16 kts 355°
2026-04-26 05:32 13.68011 100.75718 12 ft 14 kts 344°
2026-04-26 05:33 13.68074 100.75696 12 ft 7 kts 328°
2026-04-26 05:33 13.68094 100.75648 13 ft 8 kts 282°
2026-04-26 05:33 13.68109 100.75584 13 ft 10 kts 283°
2026-04-26 05:33 13.68165 100.75548 13 ft 11 kts
2026-04-26 05:34 13.68238 100.75540 13 ft 11 kts 315°
2026-04-26 05:34 13.68261 100.75473 13 ft 10 kts 284°
2026-04-26 05:34 13.68281 100.75390 13 ft 14 kts 284°
2026-04-26 05:34 13.68308 100.75283 13 ft 17 kts 284°
2026-04-26 05:35 13.68342 100.75149 13 ft 20 kts 284°
2026-04-26 05:35 13.68363 100.75065 13 ft 7 kts 284°
2026-04-26 05:35 13.68343 100.75039 13 ft 5 kts 191°
2026-04-26 05:35 13.68301 100.75029 13 ft 6 kts 194°
2026-04-26 05:36 13.68281 100.75024 13 ft 2 kts 194°
2026-04-26 05:36 13.68272 100.75022 13 ft 1 kts 194°
2026-04-26 05:36 13.68271 100.75022 13 ft 0 kts 194°